Volver al catálogo

CZ-4 DEB

ActivoPO
NORAD 26273·DEBRIS·🇨🇳 China

Lanzado Oct 14, 1999 desde Taiyuan Satellite Launch Center

Loading…

Próximos Pases (próximas 24 horas)

TLE

ActualizadoSource: Space-Track

Época: Sep 14, 2026, 09:24 UTC

1 26273U 99057FK  26257.39203344  .00000789  00000-0  10374-3 0  9992
2 26273  98.7244  56.4786 0057778   5.7462  24.4316 14.82444596422612

Sigue CZ-4 DEB en tiempo real con AllMySat

Download on the App Store